Regional Weather Roundup
Issued by NWS Lake Charles, LA

Home | Current Version | Previous Version | Text Only | Print | Product List | Glossary On
Versions: 1 2 3 4 5 6 7 8 9 10 11 12 13 14 15 16 17 18 19 20 21 22 23 24 25 26 27 28 29 30 31 32 33 34 35 36 37 38 39 40 41 42 43 44 45 46 47 48 49 50
000
ASUS44 KLCH 010010
RWRLCH
RWRLCH
REGIONAL WEATHER ROUNDUP
NATIONAL WEATHER SERVICE LAKE CHARLES LA
700 PM CDT MON AUG 31 2015

Note: "fair" indicates few or no clouds below 12,000 feet with no
significant weather and/or obstructions to visibility.


ACROSS SOUTHEAST TEXAS

CITY           SKY/WX    TMP DP  RH WIND       PRES   REMARKS
BEAUMONT       LGT RAIN  78  75  90 CALM      30.00F
BEAUMONT CITY    N/A     77  72  84 S3        30.01F
ORANGE         CLOUDY   N/A N/A N/A CALM      30.02F
JASPER         CLOUDY    83  73  69 CALM      30.03S
$$

ACROSS CENTRAL LOUISIANA

CITY           SKY/WX    TMP DP  RH WIND       PRES   REMARKS
LEESVILLE      CLOUDY    82  72  70 S8        30.01S
FULLERTON        N/A     83  70  64 VRB3      30.00R
ALEXANDRIA INT CLOUDY    84  70  62 S8        29.99F
ESLER FIELD    CLOUDY    86  70  58 S5        30.01F
DERIDDER         N/A     83  70  66 SE5       30.04S
OAKDALE          N/A     79  75  87 CALM      30.02R
OPELOUSAS        N/A     81  71  71 S3        30.02F
$$

ACROSS SOUTHWEST AND SOUTH CENTRAL LOUISIANA

CITY           SKY/WX    TMP DP  RH WIND       PRES   REMARKS
SULPHUR        CLOUDY    82  75  80 S6        30.02S
LAKE CHARLES   CLOUDY    81  75  82 S6        30.01S
CHENNAULT INT  NOT AVBL
CAMERON PHI    PTCLDY    82  75  78 S9        30.04S
DEQUINCY         N/A     79  75  89 CALM      30.02S
JENNINGS         N/A     80  74  80 SE7       30.01F
LAFAYETTE      CLOUDY    81  74  79 CALM      30.03S
NEW IBERIA     CLOUDY    82  74  76 CALM      30.03S
ABBEVILLE        N/A     79  75  86 CALM      30.02F
PATTERSON      CLOUDY    81  72  74 CALM      30.04S
SALT POINT       N/A     82  73  74 CALM      30.01S
$$

SELECTED SITES ACROSS THE REGION

CITY           SKY/WX    TMP DP  RH WIND       PRES   REMARKS
HOUSTON BUSH   MOCLDY    81  71  71 SE16      29.98F
HOUSTON HOBBY  MOCLDY    81  68  64 SE6       29.97F
GALVESTON      CLOUDY    81  71  71 E8        30.00F
COLLEGE STAT   MOCLDY    85  71  63 S15       29.97F
CONROE         MOCLDY    84  68  58 SE13      29.99F
HUNTSVILLE     PTCLDY    85  69  58 S9        29.99S
LUFKIN         MOCLDY    85  69  58 SE15      29.99S
SHREVEPORT     PTCLDY    89  61  38 SE8       29.97S
MONROE         MOCLDY    87  68  52 CALM      29.99S
NATCHEZ MS     CLOUDY    84  72  65 SW5       30.03S
BATON ROUGE    CLOUDY    83  73  72 W7        30.02S
N.O. INTL ARPT MOCLDY    87  66  49 S8        30.01S
SLIDELL        CLEAR     86  70  58 S6        30.01S
$$

MARINE REPORTS

STATION/POSITION TIME  TEMP    WIND        PRES    VSBY  WAVE
                       AIR SEA DIR/SP/G                  HT/PER
                 (UTC) (F)     (DEG/KT/KT) (MB)    (MI)  (FT/S)
BUOY 30 S HIGH I 2350   80 85  110/ 10/ 12 1015.4F         2/ 4
SEA RIM ST PARK  0000   80     180/  4/  5 1016.5F
PORT ARTHUR      2300      86  160/  5/  6 1016.3F
SABINE PASS N    2300   80 85  170/  8/ 10 1016.5F
TEXAS POINT      NOT AVBL
CALCASIEU PASS   2300   81 85  160/ 11/ 13 1015.7F
LK CHARLES BEACH 2300   82 87                N/A
MARSH ISLAND     NOT AVBL
FRESH WATER LOCK 2300   81 85   CALM  /  2 1016.9R
AMERADA PASS     2300   85 85   CALM  /  1 1016.5F
$$


USA.gov is the U.S. government's official web portal to all federal, state and local government web resources and services.